Regional Weather Roundup
Issued by NWS

Home | Current Version | Previous Version | Graphics & Text | Print | Product List | Glossary On
Versions: 1 2 3 4 5 6 7 8 9 10 11 12 13 14 15 16 17 18 19 20 21 22 23 24 25 26 27 28 29 30 31 32 33 34 35 36 37 38 39 40 41 42 43 44 45 46 47 48 49 50
000
ASUS43 KBIS 161659
RWRND

NORTH DAKOTA REGIONAL WEATHER ROUNDUP
NATIONAL WEATHER SERVICE BISMARCK ND
1200 PM CDT TUE SEP 16 2014

NOTE: "FAIR" INDICATES FEW OR NO CLOUDS BELOW 12,000 FEET WITH NO
SIGNIFICANT WEATHER AND/OR OBSTRUCTIONS TO VISIBILITY.


NDZ001>003-009>011-017-161800-
NORTHWEST NORTH DAKOTA

CITY           SKY/WX    TMP DP  RH WIND       PRES   REMARKS
WILLISTON      SUNNY     64  39  39 CALM      30.01F
MINOT          SUNNY     66  42  41 N6        29.99F
$$

NDZ018>021-031>035-040>046-161800-
SOUTHWEST NORTH DAKOTA

CITY           SKY/WX    TMP DP  RH WIND       PRES   REMARKS
BISMARCK       SUNNY     63  45  51 E3        30.01F
DICKINSON      SUNNY     66  48  52 NE5       29.98F
GARRISON         N/A     60  47  61 S6        30.00S
HETTINGER ARPT SUNNY     69  47  45 CALM      30.01F
$$

NDZ004>008-012>016-024-026-027-054-161800-
NORTHEAST NORTH DAKOTA

CITY           SKY/WX    TMP DP  RH WIND       PRES   REMARKS
GRAND FORKS    MOSUNNY   67  44  43 SW10      30.01F
DEVILS LAKE    SUNNY     63  43  48 W6        30.01S
$$

NDZ022-023-025-028>030-036>039-047>053-161800-
SOUTHEAST NORTH DAKOTA

CITY           SKY/WX    TMP DP  RH WIND       PRES   REMARKS
FARGO          SUNNY     65  43  44 SW10      30.05F
$$




USA.gov is the U.S. government's official web portal to all federal, state and local government web resources and services.